Regional Weather Roundup
Issued by NWS Albany, NY

Current Version | Previous Version | Graphics & Text | Print | Product List | Glossary Off
Versions: 1 2 3 4 5 6 7 8 9 10 11 12 13 14 15 16 17 18 19 20 21 22 23 24 25 26 27

000
ASUS41 KALY 291110
RWRALY

NEW YORK STATE HOURLY WEATHER ROUNDUP
NATIONAL WEATHER SERVICE ALBANY NY
700 AM EDT SAT APR 29 2017

NOTE: "FAIR" INDICATES FEW OR NO CLOUDS BELOW 12,000 FEET WITH NO
SIGNIFICANT WEATHER AND/OR NO OBSTRUCTIONS TO VISIBILITY.

NYZ032-033-038>043-046>054-057>066-NYZ062>081-082-084-291200-
EAST


CITY           SKY/WX    TMP DP  RH WIND       PRES   REMARKS
ALBANY         CLOUDY    63  53  70 W5        29.97R
GLENS FALLS    CLOUDY    60  51  72 CALM      29.95S
POUGHKEEPSIE   PTSUNNY   60  52  74 CALM      29.96F
NEWBURGH       PTSUNNY   61  54  77 W7        29.98F
MONTGOMERY     PTSUNNY   59  53  80 CALM      29.97F
WHITE PLAINS   CLOUDY    64  60  87 CALM      29.99R
ISLIP          CLOUDY    58  58 100 S8        29.98F FOG
NEW YORK CITY  CLOUDY    68  64  87 E3        29.97R
CENTRAL PARK   CLOUDY    64  63  96 W3        30.00R
$$

NYZ005>009-017-018-044>046-055-056-291200-
CENTRAL


CITY           SKY/WX    TMP DP  RH WIND       PRES   REMARKS
FULTON         CLOUDY    56  46  69 NW3       29.99R
SYRACUSE       CLOUDY    62  49  62 W5        29.97R
ROME           CLOUDY    57  53  86 CALM      29.98S
ELMIRA         CLOUDY    57  50  77 CALM      29.98R
BINGHAMTON     CLOUDY    59  46  62 CALM      29.99R
MONTICELLO     CLOUDY    55  48  76 CALM      30.02S
$$

NYZ026>034-041>043-087-291200-
NORTH


CITY           SKY/WX    TMP DP  RH WIND       PRES   REMARKS
WATERTOWN      CLOUDY    56  46  69 SW6       29.97S
FORT DRUM      NOT AVBL
OGDENSBURG     FAIR      56  46  69 SW9       29.95R
MASSENA        CLOUDY    58  44  60 SW9       29.92F
SARANAC LAKE   MOSUNNY   57  45  64 SW5       29.93F
PLATTSBURGH    CLOUDY    56  44  64 CALM      29.92R
$$

NYZ001>004-010>016-019>021-085-291200-
WEST


CITY           SKY/WX    TMP DP  RH WIND       PRES   REMARKS
NIAGARA FALLS  CLOUDY    57  48  72 NW5       30.01R
BUFFALO        CLOUDY    54  49  83 SW9       30.02R
DUNKIRK        CLOUDY    53  53 100 NW9       30.04R FOG
JAMESTOWN      CLOUDY    55  52  88 N3        30.01S
WELLSVILLE     CLOUDY    57  49  74 W3        30.03R
ROCHESTER      CLOUDY    58  47  66 NW9       30.00R
PENN YAN       LGT RAIN  58  47  66 NW5       30.00R
$$

             KEY
       WCI = WIND CHILL INDEX
       VSB = VISIBILITY
       HX  = HEAT INDEX
$$




USA.gov is the U.S. government's official web portal to all federal, state and local government web resources and services.